Starlink 31366

operational
NORAD ID: 59403 Int'l Des: 2024-064 Owner: SPXS Country: US Constellation: starlink
LEOCIRCULAR

Starlink 31366について

説明を読み込み中...

リアルタイム位置

3D地球を読み込み中...

次回通過

高度履歴

Altitude vs Time

uPlot chart will show altitude changes over time

軌道要素

1 59403U 24064F 25352.85932610 .00010654 00000-0 39666-3 0 9997
2 59403 43.0018 152.6731 0000908 265.8040 94.2708 15.27535475 96869
Epoch: Dec 18, 2025 • Age: 24 hours

現在のステータス

高度 482.3 km
速度 7.63 km/s
衛星直下点 10.63°N, 86.48°W
打ち上げ日 Apr 5, 2024
運用期間 1.7 years
タイプ internet

技術仕様

分類 Payload
質量 730.00 kg
乾燥質量 700.00 kg
総質量 730.00 kg
長さ 0.30 m
直径 4.10 m
スパン 29.00 m
形状 Box + pan
製造者 SPXS
バスタイプ Starlink V2M
フェーズステータス In Orbit
所有者/国 SPXS/US

大規模コンステレーション

Loading constellations...